GLD434 SBJD-SDCO

Flight info

Callsign GLD434
Flight time N/A
Altitude 5000
Route REA 231207S0470242W / 232436S0472403W
Aircraft C152/L-SDFGIRY/S

Departure

Time 2026-05-03 23:22
Airport Comte. Rolim Adolfo Amaro–Jundiaí State Airport (SBJD)

Arrival

Time N/A
Airport Sorocaba Airport (SDCO)
Time Latitude Longitude Altitude Speed Heading
2026-05-03 23:02 -23.18300 -46.94149 2506 ft 0 kts 336°
2026-05-03 23:15 -23.18281 -46.94157 2513 ft 7 kts 339°
2026-05-03 23:15 -23.18225 -46.94195 2513 ft 11 kts 300°
2026-05-03 23:15 -23.18174 -46.94250 2513 ft 11 kts 336°
2026-05-03 23:15 -23.18105 -46.94282 2513 ft 11 kts 336°
2026-05-03 23:16 -23.18034 -46.94314 2513 ft 11 kts 338°
2026-05-03 23:16 -23.17959 -46.94348 2513 ft 12 kts 337°
2026-05-03 23:16 -23.17880 -46.94385 2513 ft 12 kts 339°
2026-05-03 23:16 -23.17827 -46.94407 2513 ft 13 kts 332°
2026-05-03 23:17 -23.17744 -46.94450 2513 ft 13 kts 336°
2026-05-03 23:17 -23.17664 -46.94488 2513 ft 11 kts 337°
2026-05-03 23:17 -23.17601 -46.94517 2513 ft 10 kts 336°
2026-05-03 23:17 -23.17537 -46.94546 2511 ft 9 kts 338°
2026-05-03 23:18 -23.17497 -46.94568 2511 ft 6 kts 306°
2026-05-03 23:18 -23.17494 -46.94575 2511 ft 0 kts 290°
2026-05-03 23:20 -23.17488 -46.94622 2512 ft 11 kts 256°
2026-05-03 23:20 -23.17519 -46.94652 2513 ft 4 kts 165°
2026-05-03 23:21 -23.17524 -46.94651 2513 ft 0 kts 156°
2026-05-03 23:21 -23.17526 -46.94649 2513 ft 7 kts 154°
2026-05-03 23:21 -23.17731 -46.94552 2513 ft 55 kts 158°
2026-05-03 23:22 -23.18463 -46.94210 2806 ft 62 kts 155°
2026-05-03 23:22 -23.18856 -46.94062 3015 ft 57 kts 159°
2026-05-03 23:22 -23.19220 -46.93957 3191 ft 55 kts 159°
2026-05-03 23:23 -23.19624 -46.93902 3318 ft 63 kts 186°
2026-05-03 23:23 -23.20002 -46.94263 3424 ft 85 kts 247°
2026-05-03 23:23 -23.19863 -46.94877 3615 ft 85 kts 300°
2026-05-03 23:23 -23.19481 -46.95386 3713 ft 93 kts 305°
2026-05-03 23:24 -23.19054 -46.95987 3730 ft 103 kts 305°
2026-05-03 23:24 -23.18629 -46.96617 3745 ft 104 kts 304°
2026-05-03 23:24 -23.18433 -46.97327 3740 ft 100 kts 260°
2026-05-03 23:24 -23.18453 -46.98101 3776 ft 100 kts 263°
2026-05-03 23:25 -23.18488 -46.98863 3794 ft 99 kts 262°
2026-05-03 23:25 -23.18527 -46.99608 3804 ft 99 kts 262°
2026-05-03 23:25 -23.18600 -47.00356 3812 ft 100 kts 256°
2026-05-03 23:25 -23.18728 -47.01092 3794 ft 98 kts 253°
2026-05-03 23:26 -23.18868 -47.01818 3803 ft 97 kts 249°
2026-05-03 23:26 -23.19155 -47.02477 3803 ft 95 kts 237°
2026-05-03 23:26 -23.19484 -47.03104 3814 ft 96 kts 234°
2026-05-03 23:26 -23.19835 -47.03746 3814 ft 98 kts 234°
2026-05-03 23:27 -23.20191 -47.04381 3797 ft 97 kts 233°
2026-05-03 23:27 -23.20556 -47.04991 3804 ft 97 kts 230°
2026-05-03 23:27 -23.20930 -47.05611 3801 ft 97 kts 230°
2026-05-03 23:27 -23.21226 -47.06084 3793 ft 96 kts 230°
2026-05-03 23:28 -23.21575 -47.06625 3790 ft 95 kts 230°
2026-05-03 23:28 -23.21795 -47.07308 3788 ft 97 kts 249°
2026-05-03 23:28 -23.21938 -47.08023 3785 ft 96 kts 252°
2026-05-03 23:28 -23.22073 -47.08731 3795 ft 95 kts 253°
2026-05-03 23:29 -23.22205 -47.09441 3798 ft 96 kts 253°
2026-05-03 23:29 -23.22339 -47.10161 3811 ft 98 kts 253°
2026-05-03 23:29 -23.22476 -47.10898 3802 ft 98 kts 253°
2026-05-03 23:29 -23.22611 -47.11632 3798 ft 97 kts 254°
2026-05-03 23:30 -23.22708 -47.12356 3795 ft 97 kts 258°
2026-05-03 23:30 -23.22780 -47.13108 3893 ft 97 kts 259°
2026-05-03 23:30 -23.22827 -47.13823 4035 ft 94 kts 259°
2026-05-03 23:30 -23.22871 -47.14517 4160 ft 89 kts 260°